PAFS

Details ICAO PAFS (NIB)
Name NIKOLAI
Region USA (Alaska)
Timezone America/Anchorage (UTC-8.0)
Plans Departing 2
Arriving 1
Stats Elevation 441 ft / 134 m (AMSL)
Location 63.018560° -154.358434°
Runways 1
Magnetic Variation 14.684° E
Sunrise 2018-05-26 12:45:05 UTC / 2018-05-26 04:45:05 Local
Sunset 2018-05-27 07:46:51 UTC / 2018-05-26 23:46:51 Local
Advertisement - Login to hide

Runways

ID Width Length Bearing (true) Bearing (mag) Surface Threshold Offset Overrun Length
04 75 ft / 23 m 3,990 ft / 1,216 m 63.29° 48.61° Gravel 0 ft / 0 m 0 ft / 0 m
22 75 ft / 23 m 3,990 ft / 1,216 m 243.31° 228.63° Gravel 0 ft / 0 m 0 ft / 0 m

Map

Weather


0- 5 10 15 20 25 30 35+ Temperature / ° C

Clouds and Precipitation
Forecast for 2018-05-27 00:00 UTC. Updated 5 hours ago

Ground ~20,000 ft ~40,000 ft Winds

METAR

PAFS 270401Z AUTO 05007KT 10SM -RA FEW049 BKN065 OVC080 14/06 A2962

TAF

Not found

Frequencies

Recorded 118.32 MHz ASOS
Approach 128.10 MHz ANCHORAGE CNTR
Unicom 122.80 MHz CTAF
Warning: Do not use this data for real-world aviation or navigation. No guarantee of current accuracy is given.